Weather History for KSXT - March, 2013

Change the Weather History Date:

Thursday, March 21, 2013

  Actual Average Record
Temperature  
Mean Temperature 30 °F -  
Max Temperature 36 °F 46 °F 68 °F (2004)
Min Temperature 24 °F 33 °F 24 °F (2013)
Degree Days  
Heating Degree Days 35    
Moisture  
Dew Point 26 °F    
Average Humidity 91    
Maximum Humidity 100    
Minimum Humidity 73    
Precipitation  
Precipitation 0.01 in - - ()
Sea Level Pressure  
Sea Level Pressure 30.21 in    
Wind  
Wind Speed 1 mph (NNW)    
Max Wind Speed 7 mph    
Max Gust Speed -    
Visibility 6 miles    
Events Fog , Rain , Snow    
Averages and records for this station are not official NWS values.
T = Trace of Precipitation, MM = Missing Value Source: NWS Daily Summary

Daily Weather History Graph

Daily Weather History Graph

Search for Another Location

Airport or City:

Trip Planner

Search our weather history database for the weather conditions in past years. The results will help you decide how hot, cold, wet, or windy it might be!

Date:

Astronomy

Mar. 21, 2013 Rise Set
Actual Time 7:14 AM PDT 7:27 PM PDT
Civil Twilight 6:46 AM PDT 7:55 PM PDT
Nautical Twilight 6:13 AM PDT 8:28 PM PDT
Astronomical Twilight 5:39 AM PDT 9:02 PM PDT
Moon 1:56 PM PDT (3/21) 3:46 AM PDT (3/21)
Length of Visible Light 13h 09m
Length of Day
12h 12m
Waxing Gibbous, 69% of the Moon is Illuminated
Mar 21
Waxing Gibbous
Mar 27
Full
Apr 2
Last Quarter
Apr 10
New
Apr 18
First Quarter

Hourly Weather History & Observations

Time (PDT) Temp. Windchill Dew Point Humidity Pressure Visibility Wind Dir Wind Speed Gust Speed Precip Events Conditions
12:08 AM 28.4 °F - 26.6 °F 93% 30.12 in 9.0 mi Calm Calm - N/A   Overcast
12:15 AM 28.4 °F - 26.6 °F 93% 30.12 in 1.8 mi Calm Calm - N/A   Overcast
12:23 AM 26.6 °F - 26.6 °F 100% 30.12 in 3.0 mi Calm Calm - N/A   Overcast
12:36 AM 26.6 °F 22.6 °F 24.8 °F 93% 30.13 in 10.0 mi NNW 3.5 mph - N/A   Scattered Clouds
12:56 AM 27.0 °F 23.0 °F 25.0 °F 92% 30.20 in 9.0 mi Variable 3.5 mph - N/A   Scattered Clouds
1:01 AM 26.6 °F 22.6 °F 24.8 °F 93% 30.13 in 7.0 mi NNW 3.5 mph - N/A   Mostly Cloudy
1:25 AM 26.6 °F 21.2 °F 26.6 °F 100% 30.13 in 1.8 mi NNW 4.6 mph - N/A   Overcast
1:32 AM 26.6 °F - 24.8 °F 93% 30.13 in 3.0 mi Calm Calm - N/A   Mostly Cloudy
1:49 AM 28.4 °F 24.6 °F 26.6 °F 93% 30.13 in 1.8 mi Variable 3.5 mph - N/A   Overcast
1:56 AM 27.0 °F 20.5 °F 25.0 °F 92% 30.19 in 2.0 mi NNW 5.8 mph - N/A   Mostly Cloudy
2:03 AM 26.6 °F 22.6 °F 24.8 °F 93% 30.13 in 8.0 mi NNW 3.5 mph - N/A   Overcast
2:25 AM 28.4 °F - 26.6 °F 93% 30.14 in 1.5 mi Calm Calm - N/A   Mostly Cloudy
2:32 AM 26.6 °F - 26.6 °F 100% 30.14 in 1.2 mi Calm Calm - N/A   Mostly Cloudy
2:42 AM 26.6 °F - 26.6 °F 100% 30.15 in 0.2 mi Calm Calm - N/A Fog Light Freezing Fog
2:53 AM 26.6 °F - 26.6 °F 100% 30.15 in 0.5 mi Calm Calm - N/A Fog Light Freezing Fog
2:56 AM 27.0 °F - 26.1 °F 96% 30.22 in 0.5 mi Calm Calm - N/A Fog Light Freezing Fog
3:10 AM 26.6 °F - 26.6 °F 100% 30.15 in 1.0 mi Calm Calm - N/A   Overcast
3:18 AM 26.6 °F - 26.6 °F 100% 30.15 in 2.0 mi Calm Calm - N/A   Overcast
3:23 AM 26.6 °F - 26.6 °F 100% 30.15 in 1.2 mi Calm Calm - N/A   Overcast
3:44 AM 26.6 °F - 24.8 °F 93% 30.14 in 0.5 mi Calm Calm - N/A Fog Light Freezing Fog
3:54 AM 26.6 °F 22.6 °F 24.8 °F 93% 30.14 in 1.5 mi Variable 3.5 mph - N/A   Overcast
3:56 AM 27.0 °F 21.6 °F 25.0 °F 92% 30.22 in 1.8 mi Variable 4.6 mph - N/A   Overcast
4:01 AM 26.6 °F - 24.8 °F 93% 30.15 in 3.0 mi Calm Calm - N/A   Overcast
4:19 AM 26.6 °F - 24.8 °F 93% 30.14 in 9.0 mi Calm Calm - N/A   Overcast
4:49 AM 26.6 °F - 24.8 °F 93% 30.15 in 8.0 mi Calm Calm - N/A   Overcast
4:56 AM 26.1 °F - 25.0 °F 96% 30.24 in 9.0 mi Calm Calm - N/A   Overcast
5:09 AM 26.6 °F - 24.8 °F 93% 30.16 in 1.8 mi Calm Calm - N/A   Overcast
5:15 AM 26.6 °F - 24.8 °F 93% 30.16 in 0.8 mi Calm Calm - N/A   Mist
5:23 AM 26.6 °F - 24.8 °F 93% 30.16 in 1.0 mi Calm Calm - N/A   Mist
5:27 AM 26.6 °F - 24.8 °F 93% 30.16 in 2.5 mi Calm Calm - N/A   Overcast
5:34 AM 24.8 °F 20.5 °F 23.0 °F 93% 30.16 in 10.0 mi Variable 3.5 mph - N/A   Mostly Cloudy
5:52 AM 24.8 °F - 23.0 °F 93% 30.17 in 10.0 mi Calm Calm - N/A   Scattered Clouds
5:56 AM 25.0 °F - 21.9 °F 88% 30.27 in 10.0 mi Calm Calm - N/A   Partly Cloudy
6:56 AM 24.1 °F - 21.9 °F 91% 30.28 in 10.0 mi Calm Calm - N/A   Mostly Cloudy
7:56 AM 26.1 °F 21.9 °F 24.1 °F 92% 30.28 in 10.0 mi North 3.5 mph - N/A   Overcast
8:15 AM 24.8 °F 19.1 °F 23.0 °F 93% 30.19 in 10.0 mi North 4.6 mph - N/A   Overcast
8:44 AM 26.6 °F 22.6 °F 23.0 °F 86% 30.19 in 10.0 mi Variable 3.5 mph - N/A   Scattered Clouds
8:51 AM 26.6 °F - 24.8 °F 93% 30.20 in 10.0 mi Calm Calm - N/A   Mostly Cloudy
8:56 AM 27.0 °F - 25.0 °F 92% 30.30 in 9.0 mi Calm Calm - N/A   Mostly Cloudy
9:28 AM 26.6 °F 22.6 °F 23.0 °F 86% 30.21 in 10.0 mi NNE 3.5 mph - N/A   Scattered Clouds
9:56 AM 28.0 °F - 24.1 °F 85% 30.31 in 10.0 mi Calm Calm - N/A   Partly Cloudy
10:16 AM 28.4 °F - 26.6 °F 93% 30.21 in 10.0 mi Calm Calm - N/A   Mostly Cloudy
10:42 AM 28.4 °F - 26.6 °F 93% 30.22 in 10.0 mi Calm Calm - N/A   Overcast
10:49 AM 28.4 °F - 26.6 °F 93% 30.23 in 10.0 mi Calm Calm - N/A   Overcast
10:56 AM 28.0 °F - 26.1 °F 92% 30.33 in 10.0 mi Calm Calm - N/A   Overcast
11:05 AM 28.4 °F - 24.8 °F 86% 30.23 in 10.0 mi Calm Calm - N/A   Overcast
11:15 AM 28.4 °F 24.6 °F 26.6 °F 93% 30.23 in 10.0 mi NW 3.5 mph - N/A   Overcast
11:20 AM 28.4 °F - 26.6 °F 93% 30.23 in 10.0 mi Calm Calm - N/A   Overcast
11:56 AM 30.0 °F - 26.1 °F 85% 30.33 in 10.0 mi Calm Calm - N/A   Overcast
12:56 PM 30.9 °F - 26.1 °F 82% 30.32 in 9.0 mi Calm Calm - 0.00 in   Overcast
1:04 PM 32.0 °F - 26.6 °F 80% 30.23 in 5.0 mi Calm Calm - 0.00 in Snow Light Snow
1:19 PM 30.2 °F - 24.8 °F 80% 30.22 in 5.0 mi Calm Calm - 0.00 in Snow Light Snow
1:27 PM 32.0 °F 27.5 °F 26.6 °F 80% 30.22 in 7.0 mi Variable 4.6 mph - 0.00 in   Overcast
1:39 PM 32.0 °F - 26.6 °F 80% 30.22 in 10.0 mi Calm Calm - 0.00 in   Overcast
1:51 PM 33.8 °F - 26.6 °F 75% 30.22 in 10.0 mi Calm Calm - 0.00 in   Overcast
1:56 PM 34.0 °F - 27.0 °F 75% 30.30 in 10.0 mi Calm Calm - 0.00 in   Overcast
2:56 PM 35.1 °F - 28.9 °F 78% 30.28 in 10.0 mi Calm Calm - N/A   Scattered Clouds
3:07 PM 33.8 °F - 28.4 °F 81% 30.20 in 8.0 mi Calm Calm - 0.00 in Snow Light Snow
3:30 PM 35.6 °F 32.8 °F 30.2 °F 81% 30.20 in 7.0 mi Variable 3.5 mph - 0.00 in Snow Light Snow
3:44 PM 33.8 °F - 28.4 °F 81% 30.20 in 10.0 mi Calm Calm - 0.00 in   Scattered Clouds
3:56 PM 36.0 °F - 28.0 °F 73% 30.28 in 10.0 mi Calm Calm - 0.00 in   Scattered Clouds
4:15 PM 33.8 °F - 28.4 °F 81% 30.20 in 3.0 mi Calm Calm - 0.01 in Snow Light Snow
4:46 PM 33.8 °F - 28.4 °F 81% 30.20 in 8.0 mi Calm Calm - 0.01 in Snow Light Snow
4:56 PM 33.1 °F 30.0 °F 28.9 °F 85% 30.29 in 4.0 mi Variable 3.5 mph - 0.01 in Snow Light Snow
5:02 PM 33.8 °F - 30.2 °F 87% 30.20 in 2.5 mi Calm Calm - 0.00 in Snow Light Snow
5:13 PM 33.8 °F 30.8 °F 30.2 °F 87% 30.20 in 9.0 mi Variable 3.5 mph - 0.00 in Rain Light Rain
5:24 PM 33.8 °F 29.6 °F 28.4 °F 81% 30.20 in 10.0 mi Variable 4.6 mph - 0.00 in   Mostly Cloudy
5:46 PM 32.0 °F 27.5 °F 28.4 °F 87% 30.20 in 10.0 mi NNW 4.6 mph - 0.00 in   Scattered Clouds
5:56 PM 32.0 °F 26.4 °F 28.0 °F 85% 30.29 in 10.0 mi Variable 5.8 mph - 0.00 in   Scattered Clouds
6:09 PM 32.0 °F - 28.4 °F 87% 30.19 in 10.0 mi Calm Calm - N/A   Mostly Cloudy
6:21 PM 30.2 °F 26.7 °F 28.4 °F 93% 30.19 in 10.0 mi NNW 3.5 mph - N/A   Scattered Clouds
6:56 PM 30.9 °F 27.5 °F 27.0 °F 85% 30.31 in 10.0 mi Variable 3.5 mph - N/A   Scattered Clouds
7:05 PM 30.2 °F - 26.6 °F 86% 30.20 in 10.0 mi Calm Calm - N/A   Mostly Cloudy
7:37 PM 30.2 °F - 28.4 °F 93% 30.20 in 10.0 mi Calm Calm - N/A   Overcast
7:44 PM 28.4 °F - 26.6 °F 93% 30.21 in 10.0 mi Calm Calm - N/A   Overcast
7:56 PM 30.0 °F - 27.0 °F 88% 30.32 in 10.0 mi Calm Calm - N/A   Overcast
8:12 PM 28.4 °F 24.6 °F 28.4 °F 100% 30.21 in 1.8 mi Variable 3.5 mph - N/A   Overcast
8:27 PM 28.4 °F - 26.6 °F 93% 30.22 in 2.5 mi Calm Calm - N/A   Overcast
8:45 PM 28.4 °F 23.3 °F 26.6 °F 93% 30.21 in 9.0 mi Variable 4.6 mph - N/A   Overcast
8:56 PM 28.9 °F - 27.0 °F 92% 30.32 in 6.0 mi Calm Calm - N/A   Overcast
9:06 PM 28.4 °F - 26.6 °F 93% 30.22 in 1.8 mi Calm Calm - N/A   Overcast
9:15 PM 28.4 °F - 26.6 °F 93% 30.22 in 1.0 mi Calm Calm - N/A   Mist
9:41 PM 26.6 °F - 26.6 °F 100% 30.22 in 1.8 mi Calm Calm - N/A   Overcast
9:45 PM 28.4 °F 23.3 °F 26.6 °F 93% 30.23 in 3.0 mi Variable 4.6 mph - N/A   Overcast
9:56 PM 27.0 °F 19.5 °F 25.0 °F 92% 30.33 in 2.5 mi North 6.9 mph - N/A   Overcast
10:21 PM 26.6 °F - 24.8 °F 93% 30.23 in 6.0 mi Calm Calm - N/A   Overcast
10:56 PM 27.0 °F - 26.1 °F 96% 30.33 in 3.0 mi Calm Calm - N/A   Overcast
11:02 PM 26.6 °F - 26.6 °F 100% 30.22 in 1.8 mi Calm Calm - N/A   Overcast
11:07 PM 26.6 °F - 26.6 °F 100% 30.22 in 1.0 mi Calm Calm - N/A   Mist
11:15 PM 26.6 °F - 26.6 °F 100% 30.22 in 0.8 mi Calm Calm - N/A   Mist
11:29 PM 26.6 °F - 26.6 °F 100% 30.22 in 1.0 mi Calm Calm - N/A   Mist
11:41 PM 26.6 °F - 26.6 °F 100% 30.22 in 0.5 mi Calm Calm - 0.00 in Fog , Snow Light Snow
11:50 PM 26.6 °F - 24.8 °F 93% 30.22 in 1.0 mi Calm Calm - 0.00 in   Mist
11:56 PM 26.1 °F - 25.0 °F 96% 30.33 in 1.2 mi Calm Calm - 0.00 in   Overcast